• In Netherlands
  • List of Countries
  • For 7 days
  • Water Temperature
  • Satellite Maps
  • Weather Map
  • Weather Widgets
  • user-avatar
    Login

    Hourly Weather Otrakkala

    Today, 22 July, Sunday

    Time Temperature Precipitation Wind Pressure Humidity
    00:00 +20°C° 0.1 mm 4 mps 745 mmHg 96%
    01:00 +19°C° 0.1 mm 4 mps 745 mmHg 97%
    02:00 +19°C° 0 mm 3 mps 745 mmHg 99%
    03:00 +20°C° 0.1 mm 3 mps 745 mmHg 98%
    04:00 +20°C° 0.1 mm 3 mps 745 mmHg 98%
    05:00 +20°C° 0.1 mm 2 mps 745 mmHg 98%
    06:00 +20°C° 0 mm 2 mps 746 mmHg 95%
    07:00 +21°C° 0 mm 2 mps 746 mmHg 93%
    08:00 +21°C° 0 mm 3 mps 746 mmHg 91%
    09:00 +22°C° 0.1 mm 3 mps 746 mmHg 85%
    10:00 +24°C° 0.1 mm 3 mps 747 mmHg 79%
    11:00 +25°C° 0.1 mm 3 mps 747 mmHg 74%
    12:00 +26°C° 0.2 mm 3 mps 747 mmHg 70%
    13:00 +26°C° 0.2 mm 3 mps 747 mmHg 67%
    14:00 +26°C° 0 mm 4 mps 747 mmHg 67%
    15:00 +26°C° 0.3 mm 4 mps 747 mmHg 68%
    16:00 +26°C° 0.3 mm 4 mps 747 mmHg 68%
    17:00 +26°C° 0.3 mm 3 mps 747 mmHg 69%
    18:00 +25°C° 0 mm 3 mps 747 mmHg 74%
    19:00 +24°C° 0 mm 3 mps 747 mmHg 78%
    20:00 +23°C° 0 mm 2 mps 747 mmHg 83%
    21:00 +21°C° 0 mm 2 mps 748 mmHg 87%
    22:00 +20°C° 0 mm 2 mps 748 mmHg 91%
    23:00 +19°C° 0 mm 2 mps 748 mmHg 95%

    Tomorrow, 23 July, Monday

    Time Temperature Precipitation Wind Pressure Humidity
    00:00 +19°C° 0 mm 2 mps 748 mmHg 95%
    01:00 +19°C° 0 mm 2 mps 748 mmHg 95%
    02:00 +19°C° 0 mm 1 mps 748 mmHg 95%
    03:00 +20°C° 0 mm 1 mps 748 mmHg 94%
    04:00 +20°C° 0 mm 1 mps 749 mmHg 93%
    05:00 +20°C° 0 mm 1 mps 749 mmHg 91%
    06:00 +20°C° 0 mm 2 mps 749 mmHg 85%
    07:00 +23°C° 0 mm 2 mps 749 mmHg 79%
    08:00 +24°C° 0 mm 2 mps 749 mmHg 73%
    09:00 +25°C° 0.1 mm 2 mps 749 mmHg 68%
    10:00 +26°C° 0.1 mm 2 mps 749 mmHg 63%
    11:00 +27°C° 0.1 mm 2 mps 749 mmHg 58%
    12:00 +27°C° 0.1 mm 3 mps 749 mmHg 56%
    13:00 +28°C° 0.1 mm 3 mps 749 mmHg 53%
    14:00 +28°C° 0.1 mm 3 mps 749 mmHg 51%
    15:00 +28°C° 0 mm 2 mps 749 mmHg 53%
    16:00 +28°C° 0 mm 2 mps 749 mmHg 54%
    17:00 +27°C° 0 mm 2 mps 749 mmHg 55%
    18:00 +26°C° 0 mm 2 mps 750 mmHg 63%
    19:00 +24°C° 0 mm 2 mps 750 mmHg 71%
    20:00 +23°C° 0 mm 1 mps 750 mmHg 79%
    21:00 +22°C° 0 mm 1 mps 750 mmHg 84%
    22:00 +21°C° 0 mm 1 mps 750 mmHg 89%
    23:00 +20°C° 0 mm 1 mps 751 mmHg 94%

    Day after tomorrow, 24 July, Tuesday

    Time Temperature Precipitation Wind Pressure Humidity
    00:00 +19°C° 0 mm 1 mps 751 mmHg 95%
    01:00 +19°C° 0 mm 1 mps 751 mmHg 95%
    02:00 +19°C° 0 mm 1 mps 751 mmHg 95%
    03:00 +19°C° 0 mm 1 mps 751 mmHg 94%
    04:00 +19°C° 0 mm 1 mps 751 mmHg 92%
    05:00 +20°C° 0 mm 1 mps 751 mmHg 90%
    06:00 +21°C° 0.1 mm 1 mps 752 mmHg 83%
    07:00 +23°C° 0.1 mm 2 mps 752 mmHg 77%
    08:00 +25°C° 0.1 mm 2 mps 752 mmHg 70%
    09:00 +25°C° 0.8 mm 2 mps 752 mmHg 70%
    10:00 +26°C° 0.8 mm 2 mps 752 mmHg 69%
    11:00 +26°C° 0.8 mm 3 mps 752 mmHg 69%
    12:00 +26°C° 0.5 mm 3 mps 752 mmHg 66%
    13:00 +27°C° 0.5 mm 3 mps 752 mmHg 64%
    14:00 +27°C° 0.5 mm 3 mps 752 mmHg 62%
    15:00 +27°C° 0 mm 3 mps 752 mmHg 59%
    16:00 +27°C° 0 mm 2 mps 752 mmHg 56%
    17:00 +27°C° 0 mm 2 mps 752 mmHg 53%
    18:00 +26°C° 0 mm 2 mps 752 mmHg 59%
    19:00 +24°C° 0 mm 2 mps 752 mmHg 64%
    20:00 +23°C° 0 mm 1 mps 753 mmHg 70%
    21:00 +22°C° 0 mm 1 mps 753 mmHg 72%
    22:00 +21°C° 0 mm 1 mps 753 mmHg 75%
    23:00 +20°C° 0 mm 1 mps 753 mmHg 77%

    25 July, Wednesday

    Time Temperature Precipitation Wind Pressure Humidity
    00:00 +19°C° 0 mm 1 mps 753 mmHg 80%
    01:00 +19°C° 0 mm 1 mps 753 mmHg 82%
    02:00 +19°C° 0 mm 1 mps 754 mmHg 85%
    03:00 +19°C° 0 mm 1 mps 754 mmHg 85%
    04:00 +19°C° 0 mm 1 mps 754 mmHg 84%
    05:00 +20°C° 0 mm 1 mps 754 mmHg 84%
    06:00 +20°C° 0 mm 2 mps 754 mmHg 78%
    07:00 +23°C° 0 mm 2 mps 754 mmHg 72%
    08:00 +24°C° 0 mm 2 mps 754 mmHg 66%
    09:00 +25°C° 0 mm 2 mps 754 mmHg 62%
    10:00 +26°C° 0 mm 2 mps 754 mmHg 59%
    11:00 +27°C° 0 mm 2 mps 754 mmHg 55%
    12:00 +27°C° 0.2 mm 2 mps 754 mmHg 55%
    13:00 +28°C° 0.2 mm 2 mps 754 mmHg 56%
    14:00 +28°C° 0.2 mm 2 mps 754 mmHg 56%
    15:00 +28°C° 0.3 mm 2 mps 753 mmHg 58%
    16:00 +27°C° 0.3 mm 1 mps 753 mmHg 59%
    17:00 +27°C° 0.3 mm 1 mps 753 mmHg 61%
    18:00 +26°C° 0.1 mm 1 mps 754 mmHg 67%
    19:00 +25°C° 0.1 mm 1 mps 754 mmHg 73%
    20:00 +24°C° 0.1 mm 1 mps 754 mmHg 80%
    21:00 +23°C° 0 mm 1 mps 754 mmHg 83%
    22:00 +22°C° 0 mm 1 mps 754 mmHg 86%
    23:00 +21°C° 0 mm 1 mps 754 mmHg 89%

    26 July, Thursday

    Time Temperature Precipitation Wind Pressure Humidity
    00:00 +19°C° 0 mm 2 mps 755 mmHg 91%
    01:00 +19°C° 0 mm 2 mps 755 mmHg 93%
    02:00 +19°C° 0 mm 2 mps 755 mmHg 95%
    03:00 +19°C° 0 mm 2 mps 755 mmHg 95%
    04:00 +19°C° 0 mm 2 mps 755 mmHg 94%
    05:00 +20°C° 0 mm 2 mps 755 mmHg 94%
    06:00 +21°C° 0.1 mm 2 mps 756 mmHg 88%
    07:00 +23°C° 0.1 mm 2 mps 756 mmHg 82%
    08:00 +24°C° 0.1 mm 3 mps 756 mmHg 75%
    09:00 +25°C° 0 mm 3 mps 756 mmHg 67%
    10:00 +26°C° 0 mm 3 mps 756 mmHg 58%
    11:00 +27°C° 0 mm 3 mps 756 mmHg 50%
    12:00 +28°C° 0 mm 2 mps 756 mmHg 47%
    13:00 +28°C° 0 mm 2 mps 756 mmHg 45%
    14:00 +29°C° 0 mm 2 mps 756 mmHg 43%
    15:00 +29°C° 0 mm 2 mps 756 mmHg 43%
    16:00 +29°C° 0 mm 2 mps 755 mmHg 44%
    17:00 +29°C° 0 mm 1 mps 755 mmHg 45%
    18:00 +27°C° 0 mm 1 mps 755 mmHg 51%
    19:00 +26°C° 0 mm 1 mps 755 mmHg 57%
    20:00 +24°C° 0 mm 1 mps 755 mmHg 63%
    21:00 +23°C° 0 mm 1 mps 756 mmHg 65%
    22:00 +23°C° 0 mm 2 mps 756 mmHg 68%
    23:00 +21°C° 0 mm 2 mps 756 mmHg 70%

    27 July, Friday

    Time Temperature Precipitation Wind Pressure Humidity
    00:00 +20°C° 0 mm 2 mps 756 mmHg 73%
    01:00 +20°C° 0 mm 2 mps 756 mmHg 76%
    02:00 +19°C° 0 mm 2 mps 756 mmHg 79%
    03:00 +19°C° 0 mm 2 mps 756 mmHg 78%
    04:00 +20°C° 0 mm 2 mps 756 mmHg 78%
    05:00 +20°C° 0 mm 2 mps 756 mmHg 77%
    06:00 +23°C° 0 mm 2 mps 756 mmHg 72%
    07:00 +24°C° 0 mm 2 mps 756 mmHg 67%
    08:00 +26°C° 0 mm 2 mps 756 mmHg 62%
    09:00 +27°C° 0 mm 3 mps 756 mmHg 58%
    10:00 +29°C° 0 mm 3 mps 756 mmHg 53%
    11:00 +30°C° 0 mm 3 mps 756 mmHg 49%
    12:00 +31°C° 0 mm 3 mps 756 mmHg 47%
    13:00 +31°C° 0 mm 3 mps 756 mmHg 46%
    14:00 +31°C° 0 mm 3 mps 756 mmHg 44%
    15:00 +31°C° 0 mm 3 mps 756 mmHg 45%
    16:00 +31°C° 0 mm 3 mps 756 mmHg 46%
    17:00 +30°C° 0 mm 2 mps 756 mmHg 46%
    18:00 +29°C° 0.1 mm 2 mps 756 mmHg 53%
    19:00 +27°C° 0.1 mm 1 mps 756 mmHg 60%
    20:00 +25°C° 0.1 mm 1 mps 756 mmHg 67%
    21:00 +24°C° 0.5 mm 1 mps 757 mmHg 71%
    22:00 +23°C° 0.5 mm 1 mps 757 mmHg 75%
    23:00 +21°C° 0.5 mm 2 mps 757 mmHg 79%
    Show more